Monterey Park Past Weather

Last 30 Days

High: 56ºf @8:57 AM    Low: 51ºf @1:57 AM     Approx. Precipitation / Rain Total: in.
Time (PST)Temp. (ºf)Humidity (%)Dew Point (ºf)Barometer (inHG)Wind Speed (mph)Wind DirectionWind Gust (mph)1hr. Precip / Rain Total (in.)Snow Depth
8:57 AM568250.58-2.61s5.21--
7:57 AM566945.97-4.34sw9.56--
6:57 AM528948.86---5.21--
5:57 AM538047-1.74e3.48--
4:57 AM529049.16-1.74ese6.08--
3:57 AM537043.48-1.74ese6.95--
2:57 AM538749.23-3.48ene6.95--
1:57 AM519649.9-1.74ene3.48--
12:57 AM527945.69-0.87ene6.08--
High: 72ºf @2:57 PM    Low: 51ºf @10:57 PM     Approx. Precipitation / Rain Total: in.
Time (PST)Temp. (ºf)Humidity (%)Dew Point (ºf)Barometer (inHG)Wind Speed (mph)Wind DirectionWind Gust (mph)1hr. Precip / Rain Total (in.)Snow Depth
11:57 PM537846.33---6.95--
10:57 PM519148.47---4.34--
9:57 PM539551.61-0.87sw1.74--
8:57 PM549352.02---2.61--
7:57 PM568651.87-1.74sw3.48--
6:57 PM596446.84-2.61ssw5.21--
5:57 PM636350.2-3.48sw6.95--
4:57 PM694546.76-1.74wsw4.34--
3:57 PM713844.1-1.74s3.48--
2:57 PM723844.99-1.74sw4.34--
1:57 PM704145.21-1.74ssw6.95--
12:57 PM684747.01-2.61sw7.82--
11:57 AM655045.9-6.08wsw9.56--
10:57 AM665147.35-2.61sw5.21--
9:57 AM635446.09-1.74ssw4.34--
8:57 AM615745.65-0.87sse9.56--
7:57 AM604940.78-5.21ne9.56--
6:57 AM556141.8-4.34nne9.56--
5:57 AM575139.05-3.48ene8.69--
4:57 AM556041.37-1.74ne6.08--
3:57 AM575239.55-6.08ne11.3--
2:57 AM565841.43-2.61ne9.56--
1:57 AM585039.47-3.48ne8.69--
12:57 AM585340.96-0.87ene9.56--
High: 78ºf @2:57 PM    Low: 57ºf @10:57 PM     Approx. Precipitation / Rain Total: in.
Time (PST)Temp. (ºf)Humidity (%)Dew Point (ºf)Barometer (inHG)Wind Speed (mph)Wind DirectionWind Gust (mph)1hr. Precip / Rain Total (in.)Snow Depth
11:57 PM605041.3-3.48ne8.69--
10:57 PM576444.94-0.87ne4.34--
9:57 PM615142.74-2.61ene8.69--
8:57 PM615343.74-2.61ene7.82--
7:57 PM595844.24-0.87ene3.48--
6:57 PM615846.11-2.61sw6.08--
5:57 PM664745.18-3.48w12.17--
4:57 PM762840.53-3.48w6.08--
3:57 PM772538.47-3.48sse6.08--
2:57 PM782539.31-0.87ese6.08--
1:57 PM772740.44-2.61ssw8.69--
12:57 PM742939.71-1.74s6.95--
11:57 AM723341.31-3.48wnw8.69--
10:57 AM713340.44-1.74ssw6.95--
9:57 AM673739.86-3.48se6.08--
8:57 AM654040.09-0.87e6.08--
7:57 AM624439.83---8.69--
6:57 AM614338.34-5.21ene13.03--
5:57 AM604538.6-5.21ne12.17--
4:57 AM614338.34-1.74e12.17--
3:57 AM594638.25-3.48e7.82--
2:57 AM594839.34-0.87e9.56--
1:57 AM614338.34-4.34ne11.3--
12:57 AM624238.64-4.34ne10.43--
High: 79ºf @3:57 PM    Low: 54ºf @1:57 AM     Approx. Precipitation / Rain Total: in.
Time (PST)Temp. (ºf)Humidity (%)Dew Point (ºf)Barometer (inHG)Wind Speed (mph)Wind DirectionWind Gust (mph)1hr. Precip / Rain Total (in.)Snow Depth
11:57 PM624238.64-4.34ne9.56--
10:57 PM614640.07-1.74e15.64--
9:57 PM634239.54-6.95ne14.77--
8:57 PM644139.82-2.61ene9.56--
7:57 PM663738.98-3.48e13.9--
6:57 PM663638.28-4.34ne9.56--
5:57 PM693338.69-0.87ene4.34--
4:57 PM752233.57-1.74ssw5.21--
3:57 PM792034.49-3.48wnw7.82--
2:57 PM772134.06-2.61wnw7.82--
1:57 PM762133.23-0.87wnw5.21--
12:57 PM782337.18-1.74wnw5.21--
11:57 AM762436.59-3.48wnw6.95--
10:57 AM733241.39-1.74ne5.21--
9:57 AM654241.34---6.08--
8:57 AM653939.43-2.61nne12.17--
7:57 AM574736.97-6.95nne12.17--
6:57 AM555338.19-2.61ne7.82--
5:57 AM564736.06-4.34ene8.69--
4:57 AM564736.06-2.61e9.56--
3:57 AM564736.06-5.21ne10.43--
2:57 AM564736.06-4.34ne11.3--
1:57 AM546040.43-1.74ene12.17--
12:57 AM555338.19-6.95nne12.17--
High: 72ºf @2:57 PM    Low: 50ºf @1:57 AM     Approx. Precipitation / Rain Total: in.
Time (PST)Temp. (ºf)Humidity (%)Dew Point (ºf)Barometer (inHG)Wind Speed (mph)Wind DirectionWind Gust (mph)1hr. Precip / Rain Total (in.)Snow Depth
11:57 PM546944.06-1.74ne6.95--
10:57 PM529149.45---4.34--
9:57 PM528447.32-1.74n6.08--
8:57 PM538949.84---2.61--
7:57 PM548449.27-0.87nnw3.48--
5:57 PM616448.73-4.34w8.69--
4:57 PM685048.66-4.34sw8.69--
3:57 PM713743.4-3.48ssw7.82--
2:57 PM723643.57-3.48sw7.82--
1:57 PM714347.36-3.48sw11.3--
12:57 PM694949.03-4.34wsw9.56--
11:57 AM675148.27-3.48sw12.17--
10:57 AM655749.39-2.61sw6.08--
9:57 AM645848.92-1.74sse4.34--
8:57 AM615544.71-0.87ese8.69--
7:57 AM555840.5-3.48ne11.3--
6:57 AM516941.19-2.61ne8.69--
5:57 AM507542.39-2.61ene12.17--
4:57 AM507341.69-5.21ne10.43--
3:57 AM507843.41-3.48ne8.69--
2:57 AM508545.67-0.87e6.95--
1:57 AM509648.9-0.87nne2.61--
12:57 AM509548.62---2.61--
High: 69ºf @2:57 PM    Low: 50ºf @11:57 PM     Approx. Precipitation / Rain Total: in.
Time (PST)Temp. (ºf)Humidity (%)Dew Point (ºf)Barometer (inHG)Wind Speed (mph)Wind DirectionWind Gust (mph)1hr. Precip / Rain Total (in.)Snow Depth
11:57 PM509949.73---2.61--
10:57 PM528948.86-1.74ene5.21--
9:57 PM519750.18-0.87nnw3.48--
8:57 PM539551.61---3.48--
7:57 PM548850.53-2.61sw4.34--
6:57 PM587750.83-1.74wsw6.95--
5:57 PM616549.15-5.21wsw9.56--
4:57 PM655648.91-5.21sw9.56--
3:57 PM675349.3-4.34ssw11.3--
2:57 PM695250.63-6.08wsw13.03--
1:57 PM685249.71-5.21w10.43--
12:57 PM675349.3-2.61wsw10.43--
11:57 AM655849.86-4.34sw9.56--
10:57 AM627052.1-2.61wnw6.08--
9:57 AM627052.1-1.74se6.08--
8:57 AM607150.57-0.87e4.34--
7:57 AM559653.88-0.87ne6.08--
6:57 AM539250.74-0.87ene9.56--
5:57 AM539952.73-3.48ese8.69--
4:57 AM5210052-0.87e6.08--
3:57 AM5310053-3.48w5.21--
2:57 AM539852.45-0.87se4.34--
1:57 AM539752.17---4.34--
12:57 AM549452.31-1.74n4.34--
High: 57ºf @2:57 PM    Low: 54ºf @5:57 AM     Approx. Precipitation / Rain Total: in.
Time (PST)Temp. (ºf)Humidity (%)Dew Point (ºf)Barometer (inHG)Wind Speed (mph)Wind DirectionWind Gust (mph)1hr. Precip / Rain Total (in.)Snow Depth
11:57 PM549352.02-1.74nne3.48--
10:57 PM549753.17-0.87wnw2.61--
9:57 PM549352.02---6.08--
8:57 PM559353.01-0.87e5.21--
7:57 PM569253.71-2.61ese6.08--
6:57 PM569454.3-2.61ene7.82--
5:57 PM569253.71-2.61e7.82--
4:57 PM579254.7-0.87e9.56--
3:57 PM579555.58-4.34ene15.64--
2:57 PM579756.16-2.61sse6.95--
1:57 PM579756.16-1.74ene6.95--
12:57 PM579655.87-4.34ese10.43--
11:57 AM579655.87-4.34ese10.43--
10:57 AM579756.16-2.61ne8.69--
9:57 AM569554.59-2.61ese10.43--
8:57 AM559854.44-2.61ene9.56--
7:57 AM559854.44-3.48ne9.56--
6:57 AM559854.44---6.08--
5:57 AM549652.88-4.34ene9.56--
4:57 AM549953.72-4.34ene8.69--
3:57 AM559754.16-3.48ene6.95--
2:57 AM559553.59-2.61e8.69--
1:57 AM559653.88-3.48e10.43--
12:57 AM5510055-5.21ene8.69--
High: 57ºf @1:57 PM    Low: 54ºf @5:57 AM     Approx. Precipitation / Rain Total: in.
Time (PST)Temp. (ºf)Humidity (%)Dew Point (ºf)Barometer (inHG)Wind Speed (mph)Wind DirectionWind Gust (mph)1hr. Precip / Rain Total (in.)Snow Depth
11:57 PM549953.72-0.87e7.82--
10:57 PM5410054-0.87e5.21--
9:57 PM549953.72-2.61wnw6.08--
8:57 PM549953.72-3.48nne6.08--
7:57 PM559653.88-1.74ne6.08--
6:57 PM549953.72-3.48nne6.95--
5:57 PM549953.72-3.48ne7.82--
4:57 PM559854.44-2.61nne5.21--
3:57 PM569654.87-0.87s3.48--
2:57 PM579555.58-0.87ssw4.34--
1:57 PM579555.58-1.74s7.82--
12:57 PM579756.16-2.61sse5.21--
11:57 AM579655.87-2.61ne6.08--
10:57 AM569654.87-4.34ne8.69--
9:57 AM569755.16-4.34ene8.69--
8:57 AM559854.44-5.21nne7.82--
7:57 AM559954.72-4.34ene8.69--
6:57 AM549953.72-2.61ene6.95--
5:57 AM549953.72-2.61ene7.82--
4:57 AM559954.72-1.74ne5.21--
3:57 AM559754.16-0.87ese2.61--
2:57 AM569354-0.87sse2.61--
1:57 AM568852.49-0.87sw1.74--
12:57 AM568952.8-0.87sw3.48--
High: 69ºf @1:57 PM    Low: 52ºf @4:57 AM     Approx. Precipitation / Rain Total: in.
Time (PST)Temp. (ºf)Humidity (%)Dew Point (ºf)Barometer (inHG)Wind Speed (mph)Wind DirectionWind Gust (mph)1hr. Precip / Rain Total (in.)Snow Depth
11:57 PM568752.18---2.61--
10:57 PM578753.17-1.74w2.61--
9:57 PM569153.41---1.74--
8:57 PM568952.8---3.48--
7:57 PM597952.49-2.61sw4.34--
6:57 PM607351.32-1.74ssw3.48--
5:57 PM616850.36-1.74wsw6.95--
4:57 PM626650.51-4.34w11.3--
3:57 PM656050.77-6.08wsw13.03--
2:57 PM665850.79-5.21wsw11.3--
1:57 PM695250.63-5.21w8.69--
12:57 PM695049.58-3.48w7.82--
11:57 AM665649.85-4.34wsw7.82--
10:57 AM636249.77-2.61wsw6.08--
9:57 AM616950.75-1.74s6.95--
8:57 AM578151.23-2.61ene5.21--
7:57 AM558450.25-0.87nne2.61--
6:57 AM529650.89---4.34--
5:57 AM539551.61---2.61--
4:57 AM529851.45---2.61--
3:57 AM539551.61---3.48--
2:57 AM539551.61-2.61wnw3.48--
1:57 AM549051.13-1.74se6.08--
12:57 AM549251.73-0.87e2.61--
High: 65ºf @2:57 PM    Low: 48ºf @2:57 AM     Approx. Precipitation / Rain Total: in.
Time (PST)Temp. (ºf)Humidity (%)Dew Point (ºf)Barometer (inHG)Wind Speed (mph)Wind DirectionWind Gust (mph)1hr. Precip / Rain Total (in.)Snow Depth
11:57 PM549352.02-0.87ssw3.48--
10:57 PM549151.43-2.61sse3.48--
9:57 PM549051.13-0.87ssw3.48--
8:57 PM558550.57-2.61wsw4.34--
7:57 PM558550.57-1.74ssw4.34--
6:57 PM577850.21-3.48w9.56--
5:57 PM597350.36-2.61ssw5.21--
4:57 PM616950.75-2.61sw7.82--
3:57 PM646451.57-5.21wsw8.69--
2:57 PM656251.66-4.34w8.69--
1:57 PM656552.94-3.48sw7.82--
12:57 PM626951.71-3.48s9.56--
11:57 AM607250.94-3.48sse6.95--
10:57 AM607050.18-3.48s6.08--
9:57 AM597249.98---4.34--
8:57 AM558149.28-1.74ene4.34--
7:57 AM519148.47-1.74nne3.48--
6:57 AM509648.9-2.61n5.21--
5:57 AM5010050-0.87ne2.61--
4:57 AM499948.73-1.74nne4.34--
3:57 AM509949.73-2.61nne3.48--
2:57 AM489747.19-1.74nne3.48--
1:57 AM489045.21-0.87n2.61--
12:57 AM489546.64-0.87n3.48--
High: 71ºf @2:57 PM    Low: 49ºf @11:57 PM     Approx. Precipitation / Rain Total: in.
Time (PST)Temp. (ºf)Humidity (%)Dew Point (ºf)Barometer (inHG)Wind Speed (mph)Wind DirectionWind Gust (mph)1hr. Precip / Rain Total (in.)Snow Depth
11:57 PM499146.49-0.87n2.61--
10:57 PM518947.87-1.74n2.61--
9:57 PM519850.45---2.61--
8:57 PM539451.32-2.61w3.48--
7:57 PM559252.72-1.74sw3.48--
6:57 PM568551.55-2.61wsw3.48--
5:57 PM597751.8-1.74sw7.82--
4:57 PM656352.09-4.34wsw11.3--
3:57 PM704245.84-4.34sw8.69--
2:57 PM714146.1-3.48wsw6.95--
1:57 PM704447.07-2.61wsw7.82--
12:57 PM684948.12-3.48w7.82--
11:57 AM685149.19-0.87e6.95--
10:57 AM665348.37-1.74ne5.21--
9:57 AM626047.95-0.87sw5.21--
8:57 AM605443.3-1.74ene8.69--
7:57 AM516740.43-3.48ne9.56--
6:57 AM506538.7-5.21ne12.17--
5:57 AM506739.48-4.34ne9.56--
4:57 AM506839.86-4.34ne10.43--
3:57 AM517141.93-3.48ne9.56--
2:57 AM527243.26-4.34ne10.43--
1:57 AM527745.02-4.34nne9.56--
12:57 AM537745.98-4.34ne8.69--
High: 70ºf @2:57 PM    Low: 47ºf @2:57 AM     Approx. Precipitation / Rain Total: in.
Time (PST)Temp. (ºf)Humidity (%)Dew Point (ºf)Barometer (inHG)Wind Speed (mph)Wind DirectionWind Gust (mph)1hr. Precip / Rain Total (in.)Snow Depth
11:57 PM538347.98-2.61ne6.95--
10:57 PM538648.92-3.48nne5.21--
8:57 PM549753.17---2.61--
7:57 PM549753.17-1.74ssw5.21--
6:57 PM558951.82-3.48wsw7.82--
5:57 PM597751.8-4.34wsw8.69--
4:57 PM636450.63-4.34wsw9.56--
3:57 PM685048.66-5.21sw9.56--
2:57 PM704447.07-3.48sw8.69--
1:57 PM684847.57-4.34s10.43--
12:57 PM665147.35-5.21wsw10.43--
11:57 AM655246.94-2.61s8.69--
10:57 AM645447.02-1.74w6.95--
9:57 AM635948.44-1.74ese6.08--
8:57 AM596547.25-2.61se8.69--
7:57 AM536842.72-5.21ne9.56--
6:57 AM497942.77-3.48ene8.69--
5:57 AM488343.09-1.74ene4.34--
4:57 AM478743.33---4.34--
3:57 AM478342.11-0.87ene5.21--
2:57 AM478542.73-1.74ne6.08--
1:57 AM479144.51---4.34--
12:57 AM508445.36-0.87e6.95--
High: 67ºf @2:57 PM    Low: 49ºf @10:57 PM     Approx. Precipitation / Rain Total: in.
Time (PST)Temp. (ºf)Humidity (%)Dew Point (ºf)Barometer (inHG)Wind Speed (mph)Wind DirectionWind Gust (mph)1hr. Precip / Rain Total (in.)Snow Depth
11:57 PM517844.38-4.34nne6.95--
10:57 PM498645-0.87ne3.48--
9:57 PM518045.05-0.87n6.08--
8:57 PM508846.59---2.61--
7:57 PM528046.02-2.61w4.34--
6:57 PM557246.14-3.48w6.08--
5:57 PM586646.7-3.48wsw9.56--
4:57 PM644944.45-3.48ssw6.95--
3:57 PM664443.46-3.48s7.82--
2:57 PM674444.36-4.34sw8.69--
1:57 PM664544.04-4.34ssw9.56--
12:57 PM654844.83-3.48s9.56--
11:57 AM645145.5-3.48wsw8.69--
10:57 AM635245.09-1.74w6.08--
9:57 AM605845.18-2.61sse6.08--
8:57 AM536541.55-3.48ne7.82--
7:57 AM517041.56-4.34ne11.3--
6:57 AM507140.97-4.34ne10.43--
5:57 AM507341.69-5.21ne9.56--
4:57 AM507542.39-3.48ne9.56--
3:57 AM507542.39-3.48ne9.56--
2:57 AM517643.7-3.48ne9.56--
1:57 AM517944.72-2.61ne8.69--
12:57 AM518045.05-2.61ne6.95--
High: 69ºf @2:57 PM    Low: 46ºf @5:57 AM     Approx. Precipitation / Rain Total: in.
Time (PST)Temp. (ºf)Humidity (%)Dew Point (ºf)Barometer (inHG)Wind Speed (mph)Wind DirectionWind Gust (mph)1hr. Precip / Rain Total (in.)Snow Depth
11:57 PM498444.38-1.74ene6.08--
10:57 PM508445.36-1.74ne6.08--
9:57 PM499146.49-0.87ne4.34--
8:57 PM499647.91---2.61--
7:57 PM528948.86---5.21--
6:57 PM558149.28-3.48s5.21--
5:57 PM576846.54-3.48w8.69--
4:57 PM635446.09-5.21w10.43--
3:57 PM674343.76-7.82wsw13.03--
2:57 PM693439.45-3.48sw9.56--
1:57 PM694043.66-3.48sw7.82--
12:57 PM673739.86-3.48s6.95--
11:57 AM654241.34-1.74ssw5.21--
10:57 AM644642.8-1.74ene6.08--
9:57 AM624741.54-1.74ese4.34--
8:57 AM584536.78-1.74se5.21--
7:57 AM535235.85-1.74ene7.82--
6:57 AM466434.51-1.74ne5.21--
5:57 AM466836.04-0.87ene10.43--
4:57 AM505333.55-2.61ne9.56--
3:57 AM495734.44-4.34ne8.69--
2:57 AM495834.87-1.74ene6.08--
1:57 AM495935.3-1.74e13.03--
12:57 AM505936.24-2.61ne6.95--
High: 70ºf @3:57 PM    Low: 48ºf @11:57 PM     Approx. Precipitation / Rain Total: in.
Time (PST)Temp. (ºf)Humidity (%)Dew Point (ºf)Barometer (inHG)Wind Speed (mph)Wind DirectionWind Gust (mph)1hr. Precip / Rain Total (in.)Snow Depth
11:57 PM486637.19-1.74ene5.21--
10:57 PM515836.75-6.08nne9.56--
9:57 PM496136.14---4.34--
8:57 PM525536.34-1.74nne6.08--
7:57 PM515635.86-0.87nne4.34--
6:57 PM544633.69-1.74w6.08--
5:57 PM584134.43-4.34w6.95--
4:57 PM682530.86-2.61wsw6.08--
3:57 PM702330.49-2.61w6.95--
2:57 PM702027.08-3.48wsw8.69--
1:57 PM701925.84-2.61wsw11.3--
12:57 PM682025.43-4.34wsw9.56--
11:57 AM692127.44-3.48ssw10.43--
10:57 AM672429.02-1.74s5.21--
9:57 AM632930.24-2.61ese6.95--
8:57 AM593632.09-2.61ene8.69--
7:57 AM524732.4-5.21ne12.17--
6:57 AM495131.67-6.95ne13.9--
5:57 AM495232.15-5.21ne12.17--
4:57 AM495232.15-6.08nne13.9--
3:57 AM495332.62-4.34ne13.03--
2:57 AM505233.07-6.95ne13.9--
1:57 AM505434.02-4.34ne10.43--
12:57 AM505333.55-4.34ene13.03--
High: 68ºf @2:57 PM    Low: 47ºf @6:57 AM     Approx. Precipitation / Rain Total: in.
Time (PST)Temp. (ºf)Humidity (%)Dew Point (ºf)Barometer (inHG)Wind Speed (mph)Wind DirectionWind Gust (mph)1hr. Precip / Rain Total (in.)Snow Depth
11:57 PM515033.02-6.95ne14.77--
10:57 PM515334.48-3.48ene9.56--
9:57 PM515334.48-2.61ne8.69--
8:57 PM525234.93-4.34ene9.56--
7:57 PM515434.95-0.87ene4.34--
6:57 PM524631.87-2.61wsw6.95--
5:57 PM573730.99-6.08w10.43--
4:57 PM642729.35-4.34w7.82--
3:57 PM672226.9-2.61ssw6.95--
2:57 PM682227.74-2.61ssw7.82--
1:57 PM672327.98-3.48sw10.43--
12:57 PM662428.17-4.34wsw11.3--
11:57 AM652528.32-4.34w6.95--
10:57 AM632526.63-1.74ssw6.08--
9:57 AM622626.73-1.74ese5.21--
8:57 AM573328.19-3.48ne11.3--
7:57 AM523927.82-4.34ne13.9--
6:57 AM474627.31-7.82ne13.9--
5:57 AM474928.84-4.34ne10.43--
4:57 AM484728.74-5.21ene15.64--
3:57 AM484929.76-6.08ne13.9--
2:57 AM484929.76-6.08ne13.9--
1:57 AM494830.17-5.21ene14.77--
12:57 AM504831.09-7.82ne15.64--
High: 65ºf @2:57 PM    Low: 40ºf @4:57 AM     Approx. Precipitation / Rain Total: in.
Time (PST)Temp. (ºf)Humidity (%)Dew Point (ºf)Barometer (inHG)Wind Speed (mph)Wind DirectionWind Gust (mph)1hr. Precip / Rain Total (in.)Snow Depth
11:57 PM504831.09-8.69ne16.51--
10:57 PM514731.49-6.95ne14.77--
9:57 PM514731.49-6.08ene13.9--
8:57 PM525033.94-6.08ne11.3--
7:57 PM515736.31-1.74ne6.95--
6:57 PM505835.81-1.74nne4.34--
5:57 PM554232.33---4.34--
4:57 PM632930.24-0.87ssw6.95--
3:57 PM642729.35-3.48ssw9.56--
2:57 PM652931.97-4.34s10.43--
1:57 PM652831.1-5.21wsw12.17--
12:57 PM643535.8-4.34w10.43--
11:57 AM633736.32-2.61s7.82--
10:57 AM605041.3-0.87s7.82--
9:57 AM585441.45-1.74sw7.82--
8:57 AM565841.43-1.74se5.21--
7:57 AM497441.08-1.74se7.82--
6:57 AM428838.71-0.87ne6.08--
5:57 AM428437.52-2.61ssw8.69--
4:57 AM409037.31-2.61nne4.34--
3:57 AM437836.62-0.87nnw7.82--
2:57 AM447436.25-4.34n9.56--
1:57 AM467237.49-5.21ne12.17--
12:57 AM467739.2-4.34ne8.69--
High: 64ºf @1:57 PM    Low: 45ºf @6:57 AM     Approx. Precipitation / Rain Total: in.
Time (PST)Temp. (ºf)Humidity (%)Dew Point (ºf)Barometer (inHG)Wind Speed (mph)Wind DirectionWind Gust (mph)1hr. Precip / Rain Total (in.)Snow Depth
11:57 PM468642.05-1.74ene5.21--
10:57 PM478342.11-2.61ene6.95--
9:57 PM488142.45-0.87ene5.21--
8:57 PM478442.42---3.48--
7:57 PM506839.86-1.74sse4.34--
6:57 PM536541.55-2.61sw8.69--
5:57 PM556342.64-5.21wsw8.69--
4:57 PM576043.25-5.21sw13.03--
3:57 PM605443.3-6.08sw12.17--
2:57 PM604337.44-4.34wsw9.56--
1:57 PM644139.82-3.48s10.43--
12:57 PM624640.98-3.48wsw10.43--
11:57 AM614640.07-5.21sse9.56--
10:57 AM595241.4-4.34sse9.56--
9:57 AM576444.94-4.34e8.69--
8:57 AM536441.15-1.74ene13.03--
7:57 AM487239.41-6.08ne13.03--
6:57 AM457938.89-5.21ne11.3--
5:57 AM468040.18-6.08ne12.17--
4:57 AM468341.13-3.48ne11.3--
3:57 AM468541.75-3.48ne10.43--
2:57 AM478342.11-4.34ne9.56--
1:57 AM479144.51-0.87ene3.48--
12:57 AM488644.01-2.61ene7.82--
High: 60ºf @2:57 PM    Low: 41ºf @3:57 AM     Approx. Precipitation / Rain Total: in.
Time (PST)Temp. (ºf)Humidity (%)Dew Point (ºf)Barometer (inHG)Wind Speed (mph)Wind DirectionWind Gust (mph)1hr. Precip / Rain Total (in.)Snow Depth
11:57 PM488242.77-5.21ene9.56--
10:57 PM488644.01-1.74ene9.56--
9:57 PM507542.39-4.34ene11.3--
8:57 PM507241.33-3.48ne7.82--
7:57 PM528246.68---4.34--
6:57 PM527644.67-0.87wnw5.21--
5:57 PM526841.77-1.74sw4.34--
4:57 PM565740.98-2.61wsw5.21--
3:57 PM594034.71-1.74sw6.95--
2:57 PM604136.23-3.48w7.82--
1:57 PM604136.23-3.48w9.56--
12:57 PM584335.63-5.21wsw11.3--
11:57 AM584436.21-4.34w7.82--
10:57 AM565540.06-4.34w7.82--
9:57 AM536441.15-1.74sw5.21--
8:57 AM517342.65-2.61ese5.21--
7:57 AM468642.05-1.74ese4.34--
6:57 AM419339.13-2.61ene6.95--
5:57 AM419740.21-0.87e6.08--
4:57 AM429540.67-0.87ese4.34--
3:57 AM419840.48-1.74nne3.48--
2:57 AM439341.12-2.61wsw6.08--
1:57 AM458941.96-3.48w11.3--
12:57 AM459944.74-0.87w3.48--
High: 61ºf @2:57 PM    Low: 46ºf @6:57 AM     Approx. Precipitation / Rain Total: in.
Time (PST)Temp. (ºf)Humidity (%)Dew Point (ºf)Barometer (inHG)Wind Speed (mph)Wind DirectionWind Gust (mph)1hr. Precip / Rain Total (in.)Snow Depth
11:57 PM479846.46-2.61wsw7.82--
10:57 PM499848.46-5.21wsw9.56--
9:57 PM499948.73-4.34wnw14.77--
8:57 PM499948.73-0.87ese6.08--
7:57 PM499647.91-2.61wnw6.95--
6:57 PM537745.98-4.34s10.43--
5:57 PM546843.68-4.34ssw11.3--
4:57 PM556342.64-6.08wsw13.03--
3:57 PM575440.52-8.69wsw17.38--
2:57 PM615243.25-7.82sw13.03--
1:57 PM605443.3-6.08sw11.3--
12:57 PM605644.26-3.48sse8.69--
11:57 AM605644.26-3.48w7.82--
10:57 AM595844.24-4.34wsw8.69--
9:57 AM576746.15-0.87nne5.21--
8:57 AM546743.29-2.61ene9.56--
7:57 AM497641.77-4.34ne9.56--
6:57 AM468240.82-5.21ne11.3--
5:57 AM478241.79-3.48ene8.69--
4:57 AM478442.42-3.48ne7.82--
3:57 AM478442.42-4.34ne8.69--
2:57 AM478542.73-4.34ne8.69--
1:57 AM478643.03-4.34ne8.69--
12:57 AM478743.33-2.61nne6.08--
High: 52ºf @12:57 AM    Low: 46ºf @8:57 PM     Approx. Precipitation / Rain Total: in.
Time (PST)Temp. (ºf)Humidity (%)Dew Point (ºf)Barometer (inHG)Wind Speed (mph)Wind DirectionWind Gust (mph)1hr. Precip / Rain Total (in.)Snow Depth
11:57 PM478843.63-1.74ene6.95--
10:57 PM479144.51---5.21--
9:57 PM469644.92---6.08--
8:57 PM469745.2-1.74ese7.82--
7:57 PM479946.73---5.21--
6:57 PM479244.8-1.74n6.95--
5:57 PM479645.92-1.74n6.95--
4:57 PM489346.07-2.61nne5.21--
3:57 PM488944.91-4.34nne8.69--
2:57 PM479144.51-5.21ene10.43--
1:57 PM469344.09-6.08ene12.17--
12:57 PM488543.71-3.48e13.03--
11:57 AM488443.4-7.82ne15.64--
10:57 AM478943.93-6.95ne14.77--
9:57 AM499046.2-6.95ne12.17--
8:57 AM519850.45-5.21ene10.43--
7:57 AM519950.73-2.61ne6.08--
6:57 AM5110051-2.61e6.95--
5:57 AM519950.73-0.87ne6.95--
4:57 AM5110051---6.95--
3:57 AM519950.73-2.61e6.08--
2:57 AM519950.73-0.87se6.08--
1:57 AM519950.73-2.61e5.21--
12:57 AM529851.45-2.61ese6.95--
High: 56ºf @11:57 AM    Low: 51ºf @8:57 PM     Approx. Precipitation / Rain Total: in.
Time (PST)Temp. (ºf)Humidity (%)Dew Point (ºf)Barometer (inHG)Wind Speed (mph)Wind DirectionWind Gust (mph)1hr. Precip / Rain Total (in.)Snow Depth
11:57 PM529450.33-2.61e10.43--
10:57 PM529350.04-5.21e13.9--
9:57 PM529149.45-6.95ene12.17--
8:57 PM5110051-0.87ene5.21--
7:57 PM529450.33-0.87e8.69--
6:57 PM538648.92-3.48e11.3--
5:57 PM529149.45-3.48ne10.43--
4:57 PM539651.89-5.21ene9.56--
3:57 PM5510055---2.61--
2:57 PM5510055-0.87wnw6.95--
1:57 PM5510055-1.74ese4.34--
12:57 PM559954.72---1.74--
11:57 AM569654.87-1.74ene7.82--
10:57 AM559754.16-2.61ene5.21--
9:57 AM559954.72-1.74ene6.95--
8:57 AM5410054-4.34ene7.82--
7:57 AM5410054-5.21ene9.56--
6:57 AM5310053---5.21--
5:57 AM5310053-2.61ne4.34--
4:57 AM5310053-3.48ene7.82--
3:57 AM5310053-1.74ene6.95--
2:57 AM5310053-4.34nne7.82--
1:57 AM5310053-1.74ene6.08--
12:57 AM5210052-3.48ene8.69--
High: 59ºf @11:57 AM    Low: 49ºf @12:57 AM     Approx. Precipitation / Rain Total: in.
Time (PST)Temp. (ºf)Humidity (%)Dew Point (ºf)Barometer (inHG)Wind Speed (mph)Wind DirectionWind Gust (mph)1hr. Precip / Rain Total (in.)Snow Depth
11:57 PM529951.73-4.34ene6.95--
10:57 PM539952.73-2.61ene8.69--
9:57 PM529951.73-3.48ene10.43--
8:57 PM529851.45-4.34ene14.77--
7:57 PM529851.45-5.21ene13.9--
6:57 PM519349.05-6.95ene14.77--
5:57 PM509448.34-8.69ne15.64--
4:57 PM519349.05-6.95ne13.03--
3:57 PM539351.03-3.48nw7.82--
2:57 PM576946.93-1.74ne12.17--
1:57 PM585541.92-5.21ene11.3--
12:57 PM595542.85-2.61ene8.69--
11:57 AM595241.4-6.08e11.3--
10:57 AM586245.05-2.61ene8.69--
9:57 AM566444-4.34e8.69--
8:57 AM557346.5-2.61ese7.82--
7:57 AM537545.29-2.61ene6.95--
6:57 AM527544.32-2.61ene9.56--
5:57 AM527142.89-6.08ne12.17--
4:57 AM527243.26-5.21ne9.56--
3:57 AM518346.02-2.61e7.82--
2:57 AM518045.05-4.34ene11.3--
1:57 AM507843.41-5.21ne14.77--
12:57 AM498444.38-8.69ene17.38--
High: 63ºf @12:57 PM    Low: 49ºf @6:57 AM     Approx. Precipitation / Rain Total: in.
Time (PST)Temp. (ºf)Humidity (%)Dew Point (ºf)Barometer (inHG)Wind Speed (mph)Wind DirectionWind Gust (mph)1hr. Precip / Rain Total (in.)Snow Depth
11:57 PM498043.1-6.95ne13.03--
10:57 PM519048.17-0.87wnw4.34--
9:57 PM527945.69-1.74ssw6.08--
8:57 PM537143.85-4.34w6.95--
7:57 PM537244.22-2.61sw3.48--
6:57 PM536943.1-1.74wsw3.48--
5:57 PM556543.45-1.74ssw5.21--
4:57 PM575942.81-3.48s7.82--
3:57 PM594738.8-2.61s8.69--
2:57 PM604940.78-3.48sw7.82--
1:57 PM624339.25-3.48s7.82--
12:57 PM634641.89-4.34s8.69--
11:57 AM624842.08-5.21se9.56--
10:57 AM615444.23-3.48ese12.17--
9:57 AM595743.79-4.34e12.17--
8:57 AM575540.99-4.34ene12.17--
7:57 AM517443.01-5.21ene9.56--
6:57 AM498143.43-3.48ne7.82--
5:57 AM508144.4-3.48ene7.82--
4:57 AM498945.9-1.74ene6.08--
3:57 AM508746.28-3.48ne6.08--
2:57 AM499146.49-2.61ne6.08--
1:57 AM499447.35-0.87ne4.34--
12:57 AM499046.2---5.21--
High: 65ºf @1:57 PM    Low: 45ºf @5:57 AM     Approx. Precipitation / Rain Total: in.
Time (PST)Temp. (ºf)Humidity (%)Dew Point (ºf)Barometer (inHG)Wind Speed (mph)Wind DirectionWind Gust (mph)1hr. Precip / Rain Total (in.)Snow Depth
11:57 PM509348.06-0.87ese3.48--
10:57 PM499647.91-0.87ne2.61--
9:57 PM499447.35---2.61--
8:57 PM508645.98---3.48--
7:57 PM528647.94---4.34--
6:57 PM557948.61-3.48ssw8.69--
5:57 PM557647.57-4.34ssw10.43--
4:57 PM596246-6.95sw15.64--
3:57 PM625646.12-6.95sw15.64--
2:57 PM655045.9-5.21sw11.3--
1:57 PM654543.14-6.08sw11.3--
12:57 PM644843.91-4.34sw10.43--
11:57 AM615745.65-4.34wsw9.56--
10:57 AM606447.78-4.34w8.69--
9:57 AM577549.15-1.74w6.95--
8:57 AM567748.89---4.34--
7:57 AM519048.17-0.87ene6.08--
6:57 AM469544.65-2.61nne4.34--
5:57 AM4510045-0.87nne2.61--
4:57 AM479946.73-0.87e3.48--
3:57 AM4710047-0.87e2.61--
2:57 AM4810048-0.87nne1.74--
1:57 AM4710047-0.87n4.34--
12:57 AM4810048-2.61w3.48--
High: 52ºf @6:57 PM    Low: 48ºf @11:57 PM     Approx. Precipitation / Rain Total: in.
Time (PST)Temp. (ºf)Humidity (%)Dew Point (ºf)Barometer (inHG)Wind Speed (mph)Wind DirectionWind Gust (mph)1hr. Precip / Rain Total (in.)Snow Depth
11:57 PM4810048-1.74nw2.61--
10:57 PM5010050---0.87--
9:57 PM509849.46---5.21--
8:57 PM529751.17-3.48w6.08--
7:57 PM529550.61-1.74ssw2.61--
6:57 PM529550.61-1.74nw2.61--
5:57 PM529550.61-2.61wnw3.48--
Past Weather Disclaimer Note regarding "Approx. Precipitation / Rain Total"

Currently

Fair 70°F
30.01in
Barometer
53%
Humidity
South 6.9mph
Wind
Fair

Past Weather Nearby

More Local Information

Bookmark and Share